Simultaneous Nadir Overpasses (SNOs) Predictions

Prediction of SNOs between GOES-16 and NOAA-20 Satellite Orbit:

Table of predicted SNOs for the next 14.0 days since TLE Epoch: 2/22/2019
Index Date Time (GOES-16) GOES-16 Lat,Lon NOAA-20 Lat,Lon Distance(km) Time Diff (sec)
1 02/23/2019 18:39:28 0.02, -75.20 -0.78, -78.76 405.15 80
2 02/24/2019 18:23:24 0.02, -75.21 0.22, -74.22 111.83 80
3 02/26/2019 06:45:13 -0.01, -75.21 0.93, -79.50 488.15 80
4 02/27/2019 06:23:49 -0.01, -75.22 -0.07, -74.96 29.08 80
5 03/01/2019 18:27:01 -0.00, -75.25 -0.11, -75.73 55.25 80
6 03/02/2019 18:10:57 -0.00, -75.26 0.88, -71.20 462.50 80
7 03/04/2019 06:32:46 0.00, -75.28 0.26, -76.48 136.26 80
8 03/05/2019 06:11:22 0.00, -75.29 -0.74, -71.94 381.78 80
9 03/06/2019 18:33:19 -0.00, -75.32 -0.43, -77.25 219.08 80
10 03/07/2019 18:17:15 0.00, -75.34 0.57, -72.71 299.52 80




NCC Satellite Simultaneous Nadir Overpasses (SNOs) Prediction Service
